This is the latest recevied weather packets stored in our database for station/object K2ATL. If no packets are shown the sender has not sent any weather packets the latest 10 day(s).
| Time | Temp. | Humidity | Pressure | Rain* | Wind** | Luminosity | Snow |
|---|---|---|---|---|---|---|---|
| 1787551527 | 21.67° C | 65% | 1103.1 hPa | 0 mm | - | 0 W/m² | - |
| 1787551227 | 21.67° C | 64% | 1103.2 hPa | 0 mm | - | 0 W/m² | - |
| 1787550921 | 21.67° C | 63% | 1103.1 hPa | 0 mm | - | 0 W/m² | - |
| 1787550617 | 21.67° C | 64% | 1103 hPa | 0 mm | - | 0 W/m² | - |
| 1787550313 | 21.67° C | 65% | 1102.6 hPa | 0 mm | - | 0 W/m² | - |
| 1787550008 | 21.67° C | 65% | 1102.8 hPa | 0 mm | - | 0 W/m² | - |
| 1787549704 | 21.67° C | 64% | 1102.8 hPa | 0 mm | - | 0 W/m² | - |
| 1787549400 | 21.67° C | 63% | 1102.8 hPa | 0 mm | - | 0 W/m² | - |
| 1787549095 | 21.67° C | 64% | 1102.7 hPa | 0 mm | - | 0 W/m² | - |
| 1787548791 | 21.67° C | 65% | 1103 hPa | 0 mm | - | 0 W/m² | - |
| 1787548487 | 21.67° C | 64% | 1103 hPa | 0 mm | - | 0 W/m² | - |
| 1787548182 | 21.67° C | 64% | 1102.6 hPa | 0 mm | - | 0 W/m² | - |
| 1787547878 | 21.67° C | 64% | 1102.6 hPa | 0 mm | - | 0 W/m² | - |
| 1787547577 | 21.67° C | 64% | 1102.8 hPa | 0 mm | - | 0 W/m² | - |
| 1787547273 | 21.67° C | 65% | 1103.1 hPa | 0 mm | - | 0 W/m² | - |
| 1787546968 | 20.56° C | 69% | 1102.8 hPa | 0 mm | - | 0 W/m² | - |
| 1787546664 | 20.56° C | 71% | 1103 hPa | 0 mm | - | 0 W/m² | - |
| 1787546360 | 20° C | 73% | 1102.8 hPa | 0 mm | - | 0 W/m² | - |
| 1787546055 | 20° C | 75% | 1103 hPa | 0 mm | - | 0 W/m² | - |
| 1787545750 | 20° C | 75% | 1103 hPa | 0 mm | - | 0 W/m² | - |
| 1787545446 | 20° C | 74% | 1103 hPa | 0 mm | - | 0 W/m² | - |
| 1787545143 | 20° C | 75% | 1103 hPa | 0 mm | - | 0 W/m² | - |
| 1787544840 | 20° C | 77% | 1102.8 hPa | 0 mm | - | 0 W/m² | - |
| 1787544535 | 20.56° C | 74% | 1102.7 hPa | 0 mm | - | 0 W/m² | - |
| 1787544231 | 21.67° C | 70% | 1102.8 hPa | 0 mm | - | 0 W/m² | - |
* Rain latest hour (hover to see other rain measurements)
** Current wind speed in m/s (hover to see current wind gust speed)